Location: Moscow
(55.7500°N, 37.5830°E)
Time: 10:34:03
(UTC+03:00)

Explorer 7 - Pass Details

Date: 07 December 2021
Orbit: 483 x 674 km, 50.3° (Epoch: 19 January)

Event Time Altitude Azimuth Distance (km) Brightness Sun altitude
Rises 10:09:11 0° 272° (W) 2,700 10.0 6.7°
Reaches altitude 10° 10:11:55 10° 255° (WSW) 1,769 9.3 6.9°
Maximum altitude 10:14:47 19° 209° (SSW) 1,258 9.2 7.1°
Drops below altitude 10° 10:17:34 10° 162° (SSE) 1,702 11.6 7.3°
Sets 10:20:09 0° 145° (SE) 2,561 12.6 7.5°
